This is the latest recevied weather packets stored in our database for station/object KE2HEH. If no packets are shown the sender has not sent any weather packets the latest 10 day(s).
| Time | Temp. | Humidity | Pressure | Rain* | Wind** | Luminosity | Snow |
|---|---|---|---|---|---|---|---|
| 1777935145 | 12.22° C | 88% | 1010.8 hPa | 0 mm | - | 47 W/m² | - |
| 1777934843 | 12.22° C | 88% | 1010.8 hPa | 0 mm | - | 49 W/m² | - |
| 1777934540 | 12.22° C | 88% | 1010.8 hPa | 0 mm | - | 54 W/m² | - |
| 1777934236 | 12.22° C | 88% | 1010.9 hPa | 0 mm | - | 57 W/m² | - |
| 1777933931 | 12.22° C | 88% | 1011 hPa | 0 mm | - | 60 W/m² | - |
| 1777933629 | 12.22° C | 88% | 1010.7 hPa | 0 mm | - | 64 W/m² | - |
| 1777933326 | 12.22° C | 88% | 1010.8 hPa | 0 mm | - | 68 W/m² | - |
| 1777933023 | 12.22° C | 87% | 1011 hPa | 0 mm | - | 72 W/m² | - |
| 1777932720 | 12.22° C | 87% | 1010.8 hPa | 0 mm | - | 84 W/m² | - |
| 1777932416 | 12.78° C | 87% | 1011.1 hPa | 0 mm | - | 105 W/m² | - |
| 1777932114 | 12.78° C | 86% | 1011.2 hPa | 0 mm | - | 119 W/m² | - |
| 1777931810 | 12.78° C | 86% | 1011.3 hPa | 0 mm | - | 130 W/m² | - |
| 1777931508 | 12.78° C | 86% | 1011 hPa | 0 mm | - | 138 W/m² | - |
| 1777931203 | 12.78° C | 85% | 1011.2 hPa | 0 mm | - | 149 W/m² | - |
| 1777930900 | 12.78° C | 85% | 1011.4 hPa | 0 mm | - | 157 W/m² | - |
| 1777930597 | 12.78° C | 84% | 1011.3 hPa | 0 mm | - | 171 W/m² | - |
| 1777930293 | 12.78° C | 84% | 1011.3 hPa | 0 mm | - | 184 W/m² | - |
| 1777929990 | 12.78° C | 84% | 1011.2 hPa | 0 mm | - | 188 W/m² | - |
| 1777929687 | 12.78° C | 83% | 1011.2 hPa | 0 mm | - | 211 W/m² | - |
| 1777929385 | 13.33° C | 83% | 1011.2 hPa | 0 mm | - | 215 W/m² | - |
| 1777929081 | 13.33° C | 83% | 1011.2 hPa | 0 mm | - | 241 W/m² | - |
| 1777928779 | 13.33° C | 82% | 1011.2 hPa | 0 mm | - | 231 W/m² | - |
| 1777928474 | 13.33° C | 82% | 1011.1 hPa | 0 mm | - | 244 W/m² | - |
| 1777928172 | 13.33° C | 82% | 1011.2 hPa | 0 mm | - | 246 W/m² | - |
| 1777927870 | 13.33° C | 81% | 1011.3 hPa | 0 mm | - | 267 W/m² | - |
* Rain latest hour (hover to see other rain measurements)
** Current wind speed in m/s (hover to see current wind gust speed)